Regional Weather Roundup
Issued by NWS

Home | Current Version | Previous Version | Graphics & Text | Print | Product List | Glossary On
Versions: 1 2 3 4 5 6 7 8 9 10 11 12 13 14 15 16 17 18 19 20 21 22 23 24 25 26 27 28 29 30 31 32 33 34 35 36 37 38 39 40 41 42 43 44 45 46 47 48 49 50
000
ASUS45 KTFX 200619
RWRMT
MONTANA HOURLY WEATHER ROUNDUP
NATIONAL WEATHER SERVICE GREAT FALLS MT
1219 AM MDT WED AUG 20 2014

NOTE: "FAIR" INDICATES FEW OR NO CLOUDS BELOW 12000 FEET WITH NO
SIGNIFICANT WEATHER AND/OR OBSTRUCTIONS TO VISIBILITY.

* THESE STATIONS ARE NOT UNDER NWS QUALITY CONTROL. THEY DO NOT
   REPORT WEATHER SUCH AS PRECIPITATION OR FOG.

MTZ001>007-043-200700-
WEST OF THE DIVIDE
CITY           SKY/WX    TMP DP  RH WIND       PRES   REMARKS
KALISPELL      MOCLDY    61  57  87 E7        29.79R
MISSOULA       PTCLDY    63  45  52 CALM      29.79S
BUTTE          MOCLDY    59  43  56 S5        29.92F
MULLAN PASS    PTCLDY    55  43  64 SE7       29.92S
* LOOKOUT PASS N/A       56  50  80 N/A        N/A
* RONAN APT    PTCLDY    55  48  77 N/A        N/A
* SEELEY LAKE  N/A       51  44  77 NE1        N/A
* THOMP F APT  PTCLDY    49  46  89 NE4G10     N/A
* YAAK HILL    N/A       63  53  70 N/A        N/A
$$

MTZ008-052>055-200700-
SOUTHWEST MONTANA
CITY           SKY/WX    TMP DP  RH WIND       PRES   REMARKS
BOZEMAN        CLOUDY    61  52  72 CALM      29.86S
DILLON         CLOUDY    57  48  72 S5        29.90F
W YELLOWSTONE  CLOUDY    48  48 100 SW6       30.06F
* THREE FORKS  CLOUDY    66  57  73 N/A        N/A
* BOULDER HILL N/A       63  39  41 S6         N/A
* RAYNOLDS PAS N/A       49  30  48 SE10       N/A
* WHITEHALL    N/A       65  44  47 S3G15      N/A
* WISE RIVER   N/A       55  45  69 E4G9       N/A
$$

MTZ009>010-012-014-046-048-049-054-200700-
EAST SLOPES AND CENTRAL MONTANA
CITY           SKY/WX    TMP DP  RH WIND       PRES   REMARKS
CUT BANK       MOCLDY    59  48  67 N13       29.76S
GREAT FALLS    MOCLDY    66  46  49 CALM      29.77R
HELENA         PTCLDY    70  48  46 SW3       29.79R
MALMSTROM AFB  MOCLDY    64  50  61 S3        29.78R
* CONRAD       MOCLDY    61  54  78 N/A        N/A
* EAST GLACIER N/A       58  49  72 W16        N/A
* MONARCH      N/A       65  35  33 NW9G15     N/A
* PENDROY      N/A       62  43  50 S8         N/A
* SAINT MARY   N/A       52  48  86 S4         N/A
* SWEET GRASS  N/A       59  57  93 NW9G14     N/A
$$

MTZ011-013-016-021-035-040-045-047-050-051-200700-
NORTH CENTRAL MONTANA
CITY           SKY/WX    TMP DP  RH WIND       PRES   REMARKS
HAVRE          CLOUDY    70  52  53 W9        29.67R
LEWISTOWN      CLOUDY    68  45  44 CALM      29.76S
* CHESTER      N/A       65  47  52 NW2        N/A
* DENTON       N/A       73  41  32 W3G9       N/A
* JUDITH GAP   N/A       63  42  46 W5         N/A
* LOMA         N/A       71  46  41 W6         N/A
$$

MTZ017>020-022>027-061-062-200700-
NORTHEAST MONTANA
CITY           SKY/WX    TMP DP  RH WIND       PRES   REMARKS
GLASGOW        PTCLDY    70  48  46 SE5       29.58F
GLENDIVE       MOCLDY    73  57  57 S7        29.65F
JORDAN         MOCLDY    70  54  57 CALM      29.62F
SIDNEY         MOCLDY    72  57  59 S3        29.64S
WOLF POINT     PTCLDY    63  46  54 E9        29.61R
* BEAVER HILL  N/A       74  56  54 SE17G22    N/A
* CIRCLE       N/A       69  52  55 N/A        N/A
* SACO         N/A       67  50  55 SE9        N/A
$$

MTZ028>042-056>058-200700-
SOUTHCENTRAL AND SOUTHEAST MONTANA
CITY           SKY/WX    TMP DP  RH WIND       PRES   REMARKS
BAKER          PTCLDY    72  55  55 SE15      29.70F
BILLINGS       MOCLDY    70  45  41 S7        29.74S
LIVINGSTON     CLOUDY    70  41  35 SW41G52   29.80F
MILES CITY     CLOUDY    75  48  39 SE7       29.64S
* LAUREL APT   MOCLDY    73  39  29 W7         N/A
* ROUNDUP APT  MOCLDY    70  43  38 N/A        N/A
* HYSHAM       N/A       76  41  29 W3         N/A
* LAME DEER    N/A       78  39  25 SW6G11     N/A
* REED POINT   N/A       69  42  38 W5         N/A
* ROSCOE HILL  N/A       64  39  40 SW4        N/A
$$

REGIONAL REPORTS...DAKOTAS
CITY           SKY/WX    TMP DP  RH WIND       PRES   REMARKS
WILLISTON      CLEAR     75  61  62 SE6       29.64S
DICKINSON      PTCLDY    66  57  73 S8        29.69S
BEACH          N/A       66  59  78 SE9       29.69S
CROSBY         CLEAR     72  61  68 S20G25    29.63F
TIOGA          CLEAR     66  66 100 SE10      29.70F
WATFORD CITY   CLEAR     68  61  78 SE8       29.64S
BISMARCK       PTCLDY    70  61  73 E5        29.73S
GRAND FORKS    CLEAR     66  63  90 SE5       29.76R
FARGO          CLEAR     66  63  90 SE6       29.76F
BUFFALO SD     PTCLDY    73  57  57 SE18      29.65F
RAPID CITY     PTCLDY    68  61  78 S5        29.75S
$$

REGIONAL REPORTS...WYOMING/IDAHO/WASHINGTON
CITY           SKY/WX    TMP DP  RH WIND       PRES   REMARKS
GILLETTE       CLOUDY    79  41  26 SW18G24   29.75F
SHERIDAN       CLOUDY    72  45  38 CALM      29.74F
CODY           CLOUDY    66  46  49 E10       29.88R
YELLOWSTONE LA CLOUDY    48  43  83 VRB5      30.13F
SALMON         MOCLDY    55  52  90 CALM      29.88R
MULLAN PASS    PTCLDY    55  43  64 SE7       29.92S
SAND POINT     N/A       64  55  73 N5        29.72F
SPOKANE        PTCLDY    68  52  57 E7        29.71R
$$

REGIONAL REPORTS...ALBERTA
CITY           SKY/WX    TMP DP  RH WIND       PRES   REMARKS
CALGARY        MOCLDY    57  54  90 N8        29.78S
LETHBRIDGE     FAIR      57  52  83 E5        29.76R
MEDICINE HAT   CLOUDY    61  59  93 SW7       29.70R
EDMONTON       MOCLDY    52  50  93 W3        29.73S
WATERTON GATE  N/A       61  48  62 SW15G25    N/A
CARDSTON       N/A       54  50  86 SE5        N/A
$$

REGIONAL REPORTS...SASKATCHEWAN
CITY           SKY/WX    TMP DP  RH WIND       PRES   REMARKS
SWIFT CURRENT  CLEAR     61  57  87 SE6       29.60R
REGINA         CLOUDY    68  63  84 E15G22    29.60F
VAL MARIE      N/A       55  50  83 N1         N/A
ASSINIBOIA     N/A       64  57  78 SE7        N/A
CORONACH       N/A       64  61  90 E6         N/A

$$




USA.gov is the U.S. government's official web portal to all federal, state and local government web resources and services.